TimeEDT,TemperatureF,Dew PointF,Humidity,Sea Level PressureIn,VisibilityMPH,Wind Direction,Wind SpeedMPH,Gust SpeedMPH,PrecipitationIn,Events,Conditions,WindDirDegrees,DateUTC
12:15 AM,73.4,71.6,94,29.90,7.0,Calm,Calm,-,N/A,,Clear,0,2012-09-30 04:15:00
12:35 AM,71.6,71.6,100,29.89,7.0,WNW,3.5,-,N/A,,Clear,300,2012-09-30 04:35:00
12:55 AM,71.6,69.8,94,29.88,8.0,WSW,4.6,-,N/A,,Clear,250,2012-09-30 04:55:00
1:15 AM,71.6,69.8,94,29.88,10.0,West,3.5,-,N/A,,Clear,280,2012-09-30 05:15:00
1:55 AM,71.6,68.0,88,29.88,10.0,West,3.5,-,N/A,,Partly Cloudy,280,2012-09-30 05:55:00
2:15 AM,71.6,68.0,88,29.87,10.0,West,3.5,-,N/A,,Scattered Clouds,270,2012-09-30 06:15:00
2:35 AM,71.6,66.2,83,29.87,10.0,WNW,3.5,-,N/A,,Mostly Cloudy,290,2012-09-30 06:35:00
2:55 AM,71.6,66.2,83,29.87,10.0,WSW,3.5,-,N/A,,Mostly Cloudy,250,2012-09-30 06:55:00
3:15 AM,71.6,66.2,83,29.86,10.0,SW,5.8,-,N/A,,Mostly Cloudy,230,2012-09-30 07:15:00
3:35 AM,71.6,66.2,83,29.86,10.0,SW,4.6,-,N/A,,Mostly Cloudy,230,2012-09-30 07:35:00
3:55 AM,71.6,66.2,83,29.86,10.0,WSW,3.5,-,N/A,,Partly Cloudy,250,2012-09-30 07:55:00
4:15 AM,71.6,66.2,83,29.86,10.0,West,3.5,-,N/A,,Clear,260,2012-09-30 08:15:00
4:35 AM,73.4,68.0,83,29.86,10.0,West,3.5,-,N/A,,Clear,270,2012-09-30 08:35:00
4:55 AM,71.6,68.0,88,29.86,10.0,Calm,Calm,-,N/A,,Clear,0,2012-09-30 08:55:00
5:15 AM,71.6,68.0,88,29.86,10.0,Calm,Calm,-,N/A,,Clear,0,2012-09-30 09:15:00
5:55 AM,71.6,68.0,88,29.86,10.0,Calm,Calm,-,N/A,,Clear,0,2012-09-30 09:55:00
6:15 AM,69.8,68.0,94,29.86,9.0,Calm,Calm,-,N/A,,Clear,0,2012-09-30 10:15:00
6:35 AM,69.8,68.0,94,29.86,8.0,Calm,Calm,-,N/A,,Clear,0,2012-09-30 10:35:00
6:55 AM,69.8,68.0,94,29.86,8.0,North,4.6,-,N/A,,Clear,10,2012-09-30 10:55:00
7:15 AM,69.8,68.0,94,29.87,7.0,NNE,3.5,-,N/A,,Clear,30,2012-09-30 11:15:00
7:35 AM,69.8,68.0,94,29.87,5.0,Calm,Calm,-,N/A,,Clear,0,2012-09-30 11:35:00
7:55 AM,69.8,68.0,94,29.88,5.0,Calm,Calm,-,N/A,,Mostly Cloudy,0,2012-09-30 11:55:00
8:15 AM,69.8,68.0,94,29.88,7.0,Calm,Calm,-,N/A,,Overcast,0,2012-09-30 12:15:00
8:35 AM,69.8,68.0,94,29.89,7.0,Calm,Calm,-,N/A,,Overcast,0,2012-09-30 12:35:00
8:55 AM,71.6,68.0,88,29.90,8.0,Calm,Calm,-,N/A,,Overcast,0,2012-09-30 12:55:00
9:15 AM,71.6,68.0,88,29.90,8.0,ENE,3.5,-,N/A,,Overcast,60,2012-09-30 13:15:00
9:35 AM,71.6,68.0,88,29.90,8.0,Calm,Calm,-,N/A,,Overcast,0,2012-09-30 13:35:00
9:55 AM,71.6,69.8,94,29.90,7.0,Calm,Calm,-,N/A,,Overcast,0,2012-09-30 13:55:00
10:15 AM,71.6,69.8,94,29.91,7.0,Calm,Calm,-,N/A,,Overcast,0,2012-09-30 14:15:00
10:35 AM,73.4,69.8,88,29.91,7.0,Calm,Calm,-,N/A,,Overcast,0,2012-09-30 14:35:00
10:55 AM,73.4,69.8,88,29.91,6.0,Calm,Calm,-,N/A,,Overcast,0,2012-09-30 14:55:00
11:15 AM,73.4,69.8,88,29.90,7.0,Calm,Calm,-,N/A,,Overcast,0,2012-09-30 15:15:00
11:35 AM,75.2,69.8,83,29.90,5.0,Calm,Calm,-,N/A,,Haze,0,2012-09-30 15:35:00
11:55 AM,75.2,69.8,83,29.90,5.0,Calm,Calm,-,N/A,,Haze,0,2012-09-30 15:55:00
12:15 PM,75.2,69.8,83,29.90,6.0,NNE,4.6,-,N/A,,Haze,20,2012-09-30 16:15:00
12:35 PM,75.2,69.8,83,29.90,5.0,North,3.5,-,N/A,,Haze,360,2012-09-30 16:35:00
12:55 PM,75.2,69.8,83,29.89,5.0,NNE,3.5,-,N/A,,Haze,30,2012-09-30 16:55:00
1:15 PM,75.2,69.8,83,29.89,5.0,Calm,Calm,-,N/A,,Haze,0,2012-09-30 17:15:00
1:35 PM,75.2,69.8,83,29.88,5.0,Calm,Calm,-,N/A,,Haze,0,2012-09-30 17:35:00
1:55 PM,75.2,69.8,83,29.88,5.0,Calm,Calm,-,N/A,,Haze,0,2012-09-30 17:55:00
2:15 PM,75.2,69.8,83,29.87,5.0,Calm,Calm,-,N/A,,Haze,0,2012-09-30 18:15:00
2:35 PM,75.2,71.6,89,29.87,5.0,ESE,3.5,-,N/A,,Haze,120,2012-09-30 18:35:00
2:55 PM,75.2,71.6,89,29.86,5.0,East,3.5,-,N/A,,Mostly Cloudy,100,2012-09-30 18:55:00
3:15 PM,75.2,71.6,89,29.86,5.0,ESE,4.6,-,N/A,,Scattered Clouds,110,2012-09-30 19:15:00
3:35 PM,75.2,71.6,89,29.86,5.0,ESE,3.5,-,N/A,,Partly Cloudy,110,2012-09-30 19:35:00
3:55 PM,75.2,71.6,89,29.86,5.0,SE,3.5,-,N/A,,Haze,130,2012-09-30 19:55:00
4:15 PM,75.2,69.8,83,29.85,6.0,Calm,Calm,-,N/A,,Haze,0,2012-09-30 20:15:00
4:35 PM,75.2,71.6,89,29.85,5.0,East,3.5,-,N/A,,Haze,100,2012-09-30 20:35:00
4:55 PM,75.2,71.6,89,29.84,4.0,Calm,Calm,-,N/A,,Clear,0,2012-09-30 20:55:00
5:15 PM,75.2,71.6,89,29.84,4.0,Calm,Calm,-,N/A,,Clear,0,2012-09-30 21:15:00
5:35 PM,75.2,71.6,89,29.84,5.0,Calm,Calm,-,N/A,,Clear,0,2012-09-30 21:35:00
5:55 PM,75.2,71.6,89,29.84,4.0,Calm,Calm,-,N/A,,Partly Cloudy,0,2012-09-30 21:55:00
6:15 PM,73.4,71.6,94,29.84,5.0,Calm,Calm,-,N/A,,Partly Cloudy,0,2012-09-30 22:15:00
6:35 PM,73.4,71.6,94,29.85,4.0,Calm,Calm,-,N/A,,Mostly Cloudy,0,2012-09-30 22:35:00
6:55 PM,73.4,71.6,94,29.85,4.0,Calm,Calm,-,N/A,,Mostly Cloudy,0,2012-09-30 22:55:00
7:15 PM,73.4,71.6,94,29.85,5.0,Calm,Calm,-,N/A,,Partly Cloudy,0,2012-09-30 23:15:00
7:35 PM,73.4,71.6,94,29.86,4.0,Calm,Calm,-,N/A,,Clear,0,2012-09-30 23:35:00
7:55 PM,73.4,71.6,94,29.85,4.0,Calm,Calm,-,N/A,,Clear,0,2012-09-30 23:55:00
8:15 PM,73.4,71.6,94,29.86,4.0,Calm,Calm,-,N/A,,Clear,0,2012-10-01 00:15:00
8:35 PM,71.6,71.6,100,29.85,4.0,Calm,Calm,-,N/A,,Partly Cloudy,0,2012-10-01 00:35:00
8:55 PM,71.6,71.6,100,29.85,4.0,Calm,Calm,-,N/A,,Partly Cloudy,0,2012-10-01 00:55:00
9:15 PM,73.4,71.6,94,29.86,4.0,North,3.5,-,N/A,,Partly Cloudy,10,2012-10-01 01:15:00
9:35 PM,73.4,71.6,94,29.87,3.0,Calm,Calm,-,N/A,,Scattered Clouds,0,2012-10-01 01:35:00
9:55 PM,71.6,71.6,100,29.86,3.0,Calm,Calm,-,N/A,,Overcast,0,2012-10-01 01:55:00
10:15 PM,71.6,71.6,100,29.87,3.0,Calm,Calm,-,N/A,,Mostly Cloudy,0,2012-10-01 02:15:00
10:35 PM,71.6,71.6,100,29.87,3.0,Calm,Calm,-,N/A,,Scattered Clouds,0,2012-10-01 02:35:00
10:55 PM,71.6,71.6,100,29.87,3.0,Calm,Calm,-,N/A,,Scattered Clouds,0,2012-10-01 02:55:00
11:15 PM,71.6,71.6,100,29.86,3.0,NE,3.5,-,N/A,,Mostly Cloudy,40,2012-10-01 03:15:00
11:35 PM,71.6,71.6,100,29.86,3.0,Calm,Calm,-,N/A,,Overcast,0,2012-10-01 03:35:00
11:55 PM,71.6,71.6,100,29.86,3.0,Calm,Calm,-,N/A,,Mostly Cloudy,0,2012-10-01 03:55:00